This demonstration page uses our WeatherBlox Daily Observations layout. Learn more.

Hourly Observations for September 21, 2019

Temp ( °F °C ) Dew Point ( °F °C ) Humidity (%) Winds ( mph kmh ) Pressure ( in mb ) Visibility ( mi km ) Precip ( " mm )
12:53 am 00:53 Clear 54 12.2 48 8.9 80 80 NW 3 6 29.71 1006 10 16.09344 0 0
1:53 am 01:53 Clear 55 12.8 49 9.4 80 80 NW 3 6 29.74 1007 10 16.09344 0 0
2:53 am 02:53 Clear 54 12.2 49 9.4 83 83 W 6 9 29.77 1008 10 16.09344 0 0
3:53 am 03:53 Clear 57 13.9 40 4.4 53 53 W 14 22 29.77 1008 10 16.09344 0 0
4:53 am 04:53 Clear 53 11.7 37 2.8 55 55 NW 8 13 29.83 1010 10 16.09344 0 0
5:53 am 05:53 Clear 51 10.6 37 2.8 59 59 WNW 13 20 29.85 1011 10 16.09344 0 0
6:53 am 06:53 Sunny 54 12.2 34 1.1 47 47 W 20 31 29.85 1011 10 16.09344 0 0
7:53 am 07:53 Sunny 58 14.4 34 1.1 41 41 W 20 31 29.85 1011 10 16.09344 0 0
8:53 am 08:53 Sunny 62 16.7 34 1.1 35 35 W 23 37 29.85 1011 10 16.09344 0 0
9:53 am 09:53 Sunny 65 18.3 35 1.7 33 33 W 18 30 29.88 1012 10 16.09344 0 0
10:53 am 10:53 Sunny 67 19.4 37 2.8 33 33 W 15 24 29.88 1012 10 16.09344 0 0
11:53 am 11:53 Sunny 70 21.1 36 2.2 29 29 W 18 30 29.88 1012 10 16.09344 0 0
12:53 pm 12:53 Sunny 71 21.7 36 2.2 28 28 W 17 28 29.88 1012 10 16.09344 0 0
1:53 pm 13:53 Sunny 74 23.3 35 1.7 24 24 W 12 19 29.85 1011 10 16.09344 0 0
2:53 pm 14:53 Sunny 74 23.3 34 1.1 23 23 NW 14 22 29.85 1011 10 16.09344 0 0
3:53 pm 15:53 Sunny 75 23.9 34 1.1 22 22 WNW 15 24 29.83 1010 10 16.09344 0 0
4:53 pm 16:53 Sunny 74 23.3 32 0 21 21 WNW 14 22 29.83 1010 10 16.09344 0 0
5:53 pm 17:53 Sunny 70 21.1 35 1.7 28 28 NNW 8 13 29.88 1012 10 16.09344 0 0
6:53 pm 18:53 Mostly Cloudy 64 17.8 39 3.9 40 40 NNE 6 9 29.91 1013 10 16.09344 0 0
7:53 pm 19:53 Cloudy 62 16.7 41 5 46 46 NE 9 15 29.97 1015 10 16.09344 0 0
8:53 pm 20:53 Cloudy 59 15 43 6.1 56 56 N 6 9 29.97 1015 10 16.09344 0.001 0.001
9:53 pm 21:53 Clear 58 14.4 43 6.1 58 58 Calm 30 1016 10 16.09344 0 0
10:53 pm 22:53 Mostly Cloudy 56 13.3 44 6.7 65 65 E 6 9 29.94 1014 10 16.09344 0 0
11:53 pm 23:53 Clear 53 11.7 45 7.2 74 74 NE 6 9 29.94 1014 10 16.09344 0 0

Powered by AerisWeather